Regional Weather Roundup
Issued by NWS

Home | Current Version | Previous Version | Text Only | Print | Product List | Glossary Off
Versions: 1 2 3 4 5 6 7 8 9 10 11 12 13 14 15 16 17 18 19 20 21 22 23 24 25 26 27 28 29 30 31 32 33 34 35 36 37 38 39 40 41 42 43 44 45 46 47 48 49 50

000
ASUS43 KMKX 162120
RWRWI

WISCONSIN REGIONAL WEATHER ROUNDUP
NATIONAL WEATHER SERVICE MILWAUKEE/SULLIVAN WI
300 PM CST MON JAN 16 2017

NOTE: "FAIR" INDICATES FEW OR NO CLOUDS BELOW 12,000 FEET WITH NO
SIGNIFICANT WEATHER AND/OR OBSTRUCTIONS TO VISIBILITY.

WIZ001-002-006>008-014>016-023>028-162200-
NORTHWEST WISCONSIN

CITY           SKY/WX    TMP DP  RH WIND       PRES   REMARKS
SUPERIOR ARPT  SUNNY     33  19  57 CALM      30.07F
ASHLAND        CLOUDY    36  20  52 CALM      30.08F
HAYWARD        CLOUDY    30  19  63 S5        30.07F WCI  25
SIREN          CLOUDY    32  19  59 SE3       30.07F
CUMBERLAND     CLOUDY    23  16  74 NE3       30.07S
RICE LAKE      CLOUDY    26  18  71 CALM      30.09F
CHETEK         CLOUDY    27  17  66 E3        30.08S
LADYSMITH      CLOUDY    29  18  64 CALM      30.09F
EAU CLAIRE     CLOUDY    30  16  56 NE7       30.07F WCI  23
MENOMONIE      CLOUDY    29  19  66 CALM      30.07F
NEW RICHMOND   CLOUDY    28  17  62 E3        30.06F
OSCEOLA        CLOUDY    30  19  64 CALM      30.10S
$$

WIZ003>005-009-010-017-018-162200-
NORTH CENTRAL WISCONSIN

CITY           SKY/WX    TMP DP  RH WIND       PRES   REMARKS
MANITOWISH WTR CLOUDY    29  17  59 S3        30.06S
ARBOR VITAE    CLOUDY    32  22  67 CALM      30.07S
WOODRUFF       CLOUDY    32  22  67 CALM      30.07S
RHINELANDER    CLOUDY    31  19  61 CALM      30.09S
EAGLE RIVER    CLOUDY    33  22  64 S5        30.07S WCI  29
LAND O LAKES   CLOUDY    34  21  60 CALM      30.08S
PHILLIPS       CLOUDY    30  20  66 S5        30.06F WCI  25
TOMAHAWK       CLOUDY    32  17  54 CALM      30.09S
MEDFORD        CLOUDY    30  16  55 NE5       30.07S WCI  25
MERRILL        CLOUDY    29  16  58 CALM        N/A
$$

WIZ029-030-035-036-043>047-162200-
CENTRAL WISCONSIN

CITY           SKY/WX    TMP DP  RH WIND       PRES   REMARKS
WAUSAU         CLOUDY    30  15  53 CALM      30.09S
MOSINEE        CLOUDY    30  19  64 NE5       30.10F WCI  25
MARSHFIELD     CLOUDY    27  15  61 E8        30.07F WCI  19
STEVENS POINT  MIX PCPN  29  19  64 NE5       30.10S WCI  24
WAUPACA        LGT RAIN  33  24  68 CALM      30.13S
WAUTOMA        LGT SNOW  30  27  86 NE9       30.10F FOG     WCI  22
WISC RAPIDS    MIX PCPN  30  25  81 E5        30.10F WCI  25
CAMP DOUGLAS   MIX PCPN  32  32 100 E7        30.07S WCI  26
$$

WIZ011>013-019>022-031-037>040-048>050-162200-
NORTHEAST WISCONSIN

CITY           SKY/WX    TMP DP  RH WIND       PRES   REMARKS
ANTIGO         CLOUDY    24  14  66 CALM      30.10S
SHAWANO        CLOUDY    28  20  72 CALM      30.14S
OCONTO         CLOUDY    30  17  56 SE3       30.15S
STURGEON BAY   CLOUDY    34  18  52 S3        30.16F
GREEN BAY      CLOUDY    34  23  64 NE7       30.15S WCI  28
MANITOWOC      MIX PCPN  32  25  75 CALM      30.16F
APPLETON       DRIZZLE   32  19  59 E5        30.11F WCI  27
CLINTONVILLE   CLOUDY    30  18  59 CALM      30.13S
OSHKOSH        MIX PCPN  31  25  78 NE5       30.12F WCI  26
$$

WIZ032>034-041-042-053>061-162200-
SOUTHWEST WISCONSIN

CITY           SKY/WX    TMP DP  RH WIND       PRES   REMARKS
LA CROSSE      FRZ RAIN  34  28  79 W5        30.05F WCI  30
SPARTA         MIX PCPN  32  30  94 E6        30.07S WCI  26
VIROQUA        CLOUDY    32  32 100 E8        30.00F WCI  25
BOSCOBEL       LGT RAIN  33  31  92 NE5       30.04F FOG     WCI  29
PRAIRIE DU CHI MIX PCPN  33  32  96 E5        30.01F WCI  29
PLATTEVILLE    CLOUDY    33  33 100 E8        30.01F WCI  26
$$

WIZ056-057-062-063-064-067-068-162200-
SOUTH CENTRAL WISCONSIN

CITY           SKY/WX    TMP DP  RH WIND       PRES   REMARKS
REEDSBURG      LGT RAIN  32  32 100 E5        30.06S WCI  27
BARABOO/DELLS  MIX PCPN  32  31  96 E8        30.07S WCI  25
LONE ROCK      LGT RAIN  33  31  92 E9        30.05F FOG     WCI  25
MINERAL POINT  LGT RAIN  34  34 100 E7        30.01S WCI  28
MADISON        FRZ RAIN  32  31  96 E6        30.07F FOG     WCI  26
MIDDLETON      CLOUDY    33  33 100 E5        30.07S WCI  29
WATERTOWN      MIX PCPN  33  33 100 E8        30.07F WCI  26
MONROE         MIX PCPN  32  32 100 NE9       30.03F VSB 1/4 WCI  24
JANESVILLE     RAIN      36  36 100 E9        30.06F WCI  29
$$

WIZ051-052-058>065-066-070>072-162200-
SOUTHEAST WISCONSIN

CITY           SKY/WX    TMP DP  RH WIND       PRES   REMARKS
MILWAUKEE      LGT RAIN  36  32  85 E12       30.11F FOG     WCI  28
WAUKESHA       LGT RAIN  32  30  93 E9        30.10F FOG     WCI  24
MILWAUKEE/TIMM LGT RAIN  34  30  86 E5        30.12F FOG     WCI  30
RACINE         LGT RAIN  36  34  92 E9        30.11F FOG     WCI  29
KENOSHA        LGT RAIN  36  34  92 E8        30.09F VSB 1/4 WCI  30
FOND DU LAC    LGT RAIN  34  28  79 E7        30.11F WCI  28
SHEBOYGAN      LGT RAIN  33  29  85 E7        30.14S FOG     WCI  27
WEST BEND      DRIZZLE   32  32 100 E8        30.11F WCI  25
JUNEAU         DRIZZLE   33  32  96 E9        30.09F WCI  25
$$

LSZ147-162-162200-
LAKE SUPERIOR

STATION/POSITION TIME  TEMP    WIND        PRES    WAVE
                       AIR SEA DIR/SP/G            HT/PER
                 (UTC) (F)     (DEG/KT/KT) (MB)    (FT/S)
DEVILS ISLAND    2100   32     190/  6/  8 1019.5F
PORT WING        2040   30     310/  3/  3 1019.0F
SAXON HARBOR     2040   32      70/  4/  5 1018.6F
$$

LMZ867-665-643>646-162200-
LAKE MICHIGAN

STATION/POSITION TIME  TEMP    WIND        PRES    WAVE
                       AIR SEA DIR/SP/G            HT/PER
                 (UTC) (F)     (DEG/KT/KT) (MB)    (FT/S)
NORTHPORT PIER   2040   28      CALM  /  3 1021.3S
SISTER BAY       2050   29      10/  6/  6   N/A
KEWAUNEE LAKESHO 2054   32      90/  1/  2 1020.8F
SHEBOYGAN LAKESH 2100   32      30/  6/  6 1021.4F
PORT WASHINGTON  2040   34      90/  7/  8 1021.3F
MILWAUKEE LAKESH 2050   34      80/ 10/ 11   N/A
KENOSHA   LAKESH 2100   35      90/ 10/ 11 1019.3
$$

TC  - TEMPERATURE IN CELSIUS
VSB - VISIBILITY IN STATUTE MILES
WCI - WIND CHILL INDEX
HX  - HEAT INDEX




USA.gov is the U.S. government's official web portal to all federal, state and local government web resources and services.